РПИ Дашогуз

Руководство

Evgeny Vygornitsky*

Куратор
Инструкторы РПИ
Evgeny Vygornitsky (Supervisor)
Входит в состав
Центральная Азия

Диспетчеры РПИ

Диспетчер Рейтинг Допуски *

Аэропорты РПИ

ICAO Город Название Погода
UTAT Дашогуз Дашогуз UTAT 190600Z 06008KT 020V080 CAVOK 37/13 Q1010 R08/CLRD70 NOSIG